Regional Weather Roundup
Issued by NWS Columbia, SC

Home | Current Version | Previous Version | Text Only | Print | Product List | Glossary On
Versions: 1 2 3 4 5 6 7 8 9 10 11 12 13 14 15 16 17 18 19 20 21 22 23 24 25 26 27 28 29 30 31 32 33 34 35 36 37 38 39 40 41 42 43 44 45 46 47 48 49 50
000
ASUS42 KCAE 062010
RWRCAE
REGIONAL WEATHER ROUNDUP
NATIONAL WEATHER SERVICE COLUMBIA SC
300 PM EST SAT FEB 06 2016

NOTE: "FAIR" INDICATES FEW OR NO CLOUDS BELOW 12,000 FEET WITH NO
SIGNIFICANT WEATHER AND/OR OBSTRUCTIONS TO VISIBILITY.

NOT ALL STATIONS ARE QUALITY CONTROLLED BY THE NATIONAL
WEATHER SERVICE. USE DATA WITH CAUTION...ESPECIALLY
DEWPOINT OBSERVATIONS.

SCZ001>056-GAZ040-063>065-077-062100-
...UPSTATE SOUTH CAROLINA...

CITY           SKY/WX    TMP DP  RH WIND       PRES   REMARKS
ANDERSON       SUNNY     50  15  24 MISG      30.26F
LIBERTY        CLEAR     50  16  25 N3        30.25F
SPARTANBURG    SUNNY     46  14  27 NE3       30.28F
CLEMSON        SUNNY     51  17  26 CALM      30.27F
GREENVILLE     SUNNY     49  15  25 MISG      30.27F
GREENWOOD      SUNNY     51  17  26 N8        30.27F
GREER          SUNNY     48  16  27 NE5       30.27F
ROCK HILL      SUNNY     49  18  29 N7        30.28F
LAURENS        CLEAR     50  21  32 NW9       30.27F


...CENTRAL SOUTH CAROLINA...

CITY           SKY/WX    TMP DP  RH WIND       PRES   REMARKS
COLUMBIA APT   CLOUDY    52  21  29 E9        30.25F
COLUMBIA OWENS CLOUDY    51  21  30 E5        30.28F
MCENTIRE ANGB  CLOUDY    49  22  33 NE6       30.27F
ORANGEBURG     CLOUDY    49  23  36 NE7       30.26F
SUMTER SHAW    CLOUDY    49  24  37 E7        30.27S
NEWBERRY       PTCLDY    52  21  30 N9G16     30.30S
AIKEN          CLOUDY    46  23  39 N9        30.28F
BARNWELL       LGT RAIN  48  30  49 NE6       30.29R
MANNING        CLOUDY    48  23  37 N7        30.27F
CAMDEN         MOCLDY    50  50 100 N6        30.28F
LANCASTER      CLEAR     50  16  25 NE6       30.28F
WINNSBORO      PTCLDY    52  21  30 NE7       30.26F


...EASTERN AND COASTAL SOUTH CAROLINA...

CITY           SKY/WX    TMP DP  RH WIND       PRES   REMARKS
MYRTLE BEACH   PTSUNNY   52  27  37 NE7       30.29F
N MYRTLE BCH   CLOUDY    51  28  41 NE9       30.27F
CONWAY         CLOUDY    50  28  43 N7        30.28F
MARION         FAIR      50  23  34 NE8       30.29F
HARTSVILLE     FAIR      52  21  30 N10       30.27F
FLORENCE       PTSUNNY   50  25  37 NE12      30.28F
DARLINGTON     SUNNY     52  25  35 NE10      30.29F
CHARLESTON APT CLOUDY    53  30  41 NE12      30.24F
MOUNT PLEASANT CLOUDY    52  36  54 CALM      30.25S
WALTERBORO     CLOUDY    52  28  40 N6        30.25F
BEAUFORT       CLOUDY    53  31  42 NE7       30.24F


...EASTERN GEORGIA...

CITY           SKY/WX    TMP DP  RH WIND       PRES   REMARKS
AUGUSTA BUSH F CLOUDY    49  24  37 SE6       30.27S
AUGUSTA DANIEL CLOUDY    51  22  31 NE6       30.26S
THOMSON        CLOUDY    52  27  38 N7        30.30S
WASHINGTON     FAIR      55  30  38 N6        30.25F
CLAXTON        RAIN      45  40  82 N6        30.26R
SYLVANIA       LGT RAIN  47  38  70 NE7       30.26F
STATESBORO     LGT RAIN  50  32  50 NE6       30.26R
SAVANNAH       LGT RAIN  48  41  76 N6        30.24F


...SOUTHERN NORTH CAROLINA...

CITY           SKY/WX    TMP DP  RH WIND       PRES   REMARKS
CHARLOTTE      PTSUNNY   49  13  23 NW6       30.30F
MONROE         SUNNY     49  18  29 NE13      30.28F
WADESBORO      CLEAR     51  17  26 N6        30.29F
ROCKINGHAM     CLEAR     50  18  28 NE6       30.29F
RUTHERFORDTON  SUNNY     49  13  24 NW5       30.29F
ASHEVILLE      SUNNY     44   7  21 N12G21    30.25F

$$



USA.gov is the U.S. government's official web portal to all federal, state and local government web resources and services.